Rensselaer, IN

5:56 PM CDT on March 24, 2017 (GMT -0500)
Jasper County

Weather History for KRZL - December, 2013

Change the Weather History Date:

Tuesday, December 24, 2013

  Actual Average (KIKK) Record (KIKK)
Temperature  
Mean Temperature 12 °F -  
Max Temperature 21 °F 30 °F 60 °F (1982)
Min Temperature 3 °F 16 °F -26 °F (1983)
Degree Days  
Heating Degree Days 53    
Moisture  
Dew Point 6 °F    
Average Humidity 81    
Maximum Humidity 86    
Minimum Humidity 68    
Precipitation  
Precipitation 0.00 in - - ()
Sea Level Pressure  
Sea Level Pressure 30.49 in    
Wind  
Wind Speed 11 mph (SW)    
Max Wind Speed 17 mph    
Max Gust Speed 23 mph    
Visibility 10 miles    
Events      
Averages and records for this station are not official NWS values.
T = Trace of Precipitation, MM = Missing Value Source: NWS Daily Summary

Daily Weather History Graph

Daily Weather History Graph

Search for Another Location

Airport or City:

Trip Planner

Search our weather history database for the weather conditions in past years. The results will help you decide how hot, cold, wet, or windy it might be!

Date:

Astronomy

Dec. 24, 2013 Rise Set
Actual Time 7:11 AM CST 4:25 PM CST
Civil Twilight 6:40 AM CST 4:56 PM CST
Nautical Twilight 6:05 AM CST 5:31 PM CST
Astronomical Twilight 5:32 AM CST 6:04 PM CST
Moon 11:36 PM CST 11:02 AM CST
Length of Visible Light 10h 16m
Length of Day
9h 14m
Waning Gibbous, 58% of the Moon is Illuminated
Dec 24
Waning Gibbous
Dec 25
Last Quarter
Jan 1
New
Jan 7
First Quarter
Jan 15
Full

Hourly Weather History & Observations

Time (CST) Temp. Windchill Dew Point Humidity Pressure Visibility Wind Dir Wind Speed Gust Speed Precip Events Conditions
12:15 AM 5.0 °F -13.0 °F -0.4 °F 78% 30.46 in 10.0 mi West 15.0 mph - N/A   Clear
12:35 AM 3.2 °F -15.3 °F -0.4 °F 85% 30.46 in 10.0 mi West 15.0 mph 21.9 mph N/A   Clear
12:55 AM 3.2 °F -16.5 °F -0.4 °F 85% 30.45 in 10.0 mi West 17.3 mph 23.0 mph N/A   Clear
1:15 AM 3.2 °F -15.3 °F -0.4 °F 85% 30.46 in 10.0 mi West 15.0 mph 21.9 mph N/A   Clear
1:35 AM 3.2 °F -15.9 °F -0.4 °F 85% 30.47 in 10.0 mi West 16.1 mph - N/A   Clear
1:55 AM 3.2 °F -13.1 °F -0.4 °F 85% 30.48 in 10.0 mi West 11.5 mph 18.4 mph N/A   Clear
2:15 AM 3.2 °F -14.6 °F -0.4 °F 85% 30.48 in 10.0 mi West 13.8 mph - N/A   Clear
2:35 AM 3.2 °F -13.9 °F -0.4 °F 85% 30.47 in 10.0 mi WSW 12.7 mph 19.6 mph N/A   Clear
2:55 AM 3.2 °F -13.1 °F -2.2 °F 78% 30.48 in 10.0 mi West 11.5 mph 19.6 mph N/A   Clear
3:15 AM 3.2 °F -13.9 °F -0.4 °F 85% 30.47 in 10.0 mi West 12.7 mph - N/A   Clear
3:35 AM 3.2 °F -12.2 °F -0.4 °F 85% 30.48 in 10.0 mi West 10.4 mph 17.3 mph N/A   Clear
3:55 AM 3.2 °F -14.6 °F -0.4 °F 85% 30.48 in 10.0 mi West 13.8 mph - N/A   Clear
4:15 AM 3.2 °F -13.9 °F -0.4 °F 85% 30.48 in 10.0 mi West 12.7 mph - N/A   Clear
4:35 AM 3.2 °F -13.9 °F -0.4 °F 85% 30.49 in 10.0 mi West 12.7 mph 19.6 mph N/A   Clear
4:55 AM 3.2 °F -13.1 °F -0.4 °F 85% 30.49 in 10.0 mi West 11.5 mph - N/A   Clear
5:15 AM 3.2 °F -10.3 °F -0.4 °F 85% 30.49 in 10.0 mi West 8.1 mph 19.6 mph N/A   Clear
5:35 AM 3.2 °F -12.2 °F -0.4 °F 85% 30.50 in 10.0 mi West 10.4 mph - N/A   Clear
5:55 AM 3.2 °F -12.2 °F -0.4 °F 85% 30.51 in 10.0 mi West 10.4 mph - N/A   Clear
6:15 AM 3.2 °F -10.3 °F -0.4 °F 85% 30.50 in 10.0 mi WSW 8.1 mph - N/A   Clear
6:35 AM 3.2 °F -10.3 °F -0.4 °F 85% 30.51 in 10.0 mi WSW 8.1 mph - N/A   Clear
6:55 AM 3.2 °F -11.3 °F -0.4 °F 85% 30.52 in 10.0 mi WSW 9.2 mph - N/A   Clear
7:15 AM 3.2 °F -13.1 °F -0.4 °F 85% 30.53 in 10.0 mi WSW 11.5 mph - N/A   Clear
7:35 AM 3.2 °F -12.2 °F -0.4 °F 85% 30.53 in 10.0 mi WSW 10.4 mph - N/A   Clear
7:55 AM 3.2 °F -13.1 °F -0.4 °F 85% 30.53 in 10.0 mi West 11.5 mph - N/A   Clear
8:15 AM 3.2 °F -12.2 °F -0.4 °F 85% 30.53 in 10.0 mi WSW 10.4 mph - N/A   Clear
8:35 AM 5.0 °F -8.1 °F -0.4 °F 78% 30.53 in 10.0 mi WSW 8.1 mph - N/A   Clear
8:55 AM 5.0 °F -10.0 °F 1.4 °F 85% 30.54 in 10.0 mi WSW 10.4 mph - N/A   Clear
9:15 AM 6.8 °F -10.7 °F 1.4 °F 79% 30.55 in 10.0 mi WSW 15.0 mph - N/A   Clear
9:35 AM 8.6 °F -7.7 °F 3.2 °F 79% 30.56 in 10.0 mi SW 13.8 mph 18.4 mph N/A   Clear
9:55 AM 8.6 °F -5.5 °F 3.2 °F 79% 30.57 in 10.0 mi West 10.4 mph - N/A   Clear
10:15 AM 8.6 °F -5.5 °F 3.2 °F 79% 30.57 in 10.0 mi WSW 10.4 mph - N/A   Clear
10:35 AM 10.4 °F -4.1 °F 5.0 °F 79% 30.58 in 10.0 mi WSW 11.5 mph - N/A   Clear
10:55 AM 10.4 °F -2.4 °F 5.0 °F 79% 30.57 in 10.0 mi West 9.2 mph - N/A   Clear
11:15 AM 12.2 °F 1.7 °F 5.0 °F 73% 30.55 in 10.0 mi WSW 6.9 mph - N/A   Clear
11:35 AM 12.2 °F -0.2 °F 5.0 °F 73% 30.54 in 10.0 mi SW 9.2 mph - N/A   Clear
11:55 AM 14.0 °F 5.1 °F 6.8 °F 73% 30.54 in 10.0 mi SW 5.8 mph - N/A   Clear
12:15 PM 14.0 °F 3.9 °F 8.6 °F 79% 30.53 in 10.0 mi WSW 6.9 mph - N/A   Clear
12:35 PM 14.0 °F 2.0 °F 8.6 °F 79% 30.53 in 10.0 mi SW 9.2 mph - N/A   Clear
12:55 PM 15.8 °F 6.1 °F 8.6 °F 73% 30.53 in 10.0 mi SW 6.9 mph - N/A   Clear
1:15 PM 17.6 °F 8.2 °F 8.6 °F 68% 30.52 in 10.0 mi SW 6.9 mph - N/A   Clear
1:35 PM 17.6 °F 6.4 °F 10.4 °F 73% 30.52 in 10.0 mi SW 9.2 mph - N/A   Clear
1:55 PM 17.6 °F 10.7 °F 10.4 °F 73% 30.51 in 10.0 mi SSW 4.6 mph - N/A   Clear
2:15 PM 17.6 °F 8.2 °F 10.4 °F 73% 30.51 in 10.0 mi SW 6.9 mph - N/A   Clear
2:35 PM 19.4 °F 9.5 °F 12.2 °F 74% 30.51 in 10.0 mi SSW 8.1 mph - N/A   Clear
2:55 PM 17.6 °F 10.7 °F 10.4 °F 73% 30.50 in 10.0 mi SW 4.6 mph - N/A   Clear
3:15 PM 17.6 °F 8.2 °F 10.4 °F 73% 30.52 in 10.0 mi South 6.9 mph - N/A   Clear
3:35 PM 19.4 °F 9.5 °F 12.2 °F 74% 30.52 in 10.0 mi SSW 8.1 mph - N/A   Clear
3:55 PM 17.6 °F 9.3 °F 12.2 °F 79% 30.50 in 10.0 mi South 5.8 mph - N/A   Clear
4:15 PM 17.6 °F 9.3 °F 12.2 °F 79% 30.49 in 10.0 mi South 5.8 mph - N/A   Clear
4:35 PM 17.6 °F 9.3 °F 12.2 °F 79% 30.49 in 10.0 mi SSE 5.8 mph - N/A   Clear
4:55 PM 15.8 °F 7.2 °F 12.2 °F 86% 30.49 in 10.0 mi SSE 5.8 mph - N/A   Clear
5:15 PM 15.8 °F 8.6 °F 12.2 °F 86% 30.49 in 10.0 mi SSE 4.6 mph - N/A   Clear
5:35 PM 14.0 °F 6.5 °F 10.4 °F 86% 30.49 in 10.0 mi SSE 4.6 mph - N/A   Clear
5:55 PM 14.0 °F 8.2 °F 10.4 °F 86% 30.49 in 10.0 mi SE 3.5 mph - N/A   Clear
6:15 PM 15.8 °F - 12.2 °F 86% 30.49 in 10.0 mi Calm Calm - N/A   Clear
6:35 PM 15.8 °F 7.2 °F 12.2 °F 86% 30.49 in 10.0 mi SE 5.8 mph - N/A   Clear
6:55 PM 15.8 °F 6.1 °F 12.2 °F 86% 30.49 in 10.0 mi SSE 6.9 mph - N/A   Clear
7:15 PM 15.8 °F 8.6 °F 12.2 °F 86% 30.48 in 10.0 mi SE 4.6 mph - N/A   Clear
7:35 PM 17.6 °F 8.2 °F 12.2 °F 79% 30.47 in 10.0 mi SSE 6.9 mph - N/A   Clear
7:55 PM 17.6 °F 7.3 °F 12.2 °F 79% 30.47 in 10.0 mi SSE 8.1 mph - N/A   Scattered Clouds
8:15 PM 17.6 °F 8.2 °F 14.0 °F 86% 30.46 in 10.0 mi SSE 6.9 mph - N/A   Scattered Clouds
8:35 PM 17.6 °F 9.3 °F 14.0 °F 86% 30.46 in 10.0 mi SSE 5.8 mph - N/A   Mostly Cloudy
8:55 PM 19.4 °F 9.5 °F 14.0 °F 80% 30.45 in 10.0 mi SSE 8.1 mph - N/A   Overcast
9:15 PM 19.4 °F 9.5 °F 14.0 °F 80% 30.44 in 10.0 mi SE 8.1 mph - N/A   Overcast
9:35 PM 19.4 °F 7.9 °F 14.0 °F 80% 30.44 in 10.0 mi SSE 10.4 mph - N/A   Overcast
9:55 PM 19.4 °F 7.9 °F 14.0 °F 80% 30.42 in 10.0 mi SE 10.4 mph - N/A   Overcast
10:15 PM 19.4 °F 6.0 °F 14.0 °F 80% 30.42 in 10.0 mi SSE 13.8 mph - N/A   Overcast
10:35 PM 19.4 °F 7.2 °F 14.0 °F 80% 30.42 in 10.0 mi South 11.5 mph - N/A   Overcast
10:55 PM 21.2 °F 8.9 °F 14.0 °F 74% 30.42 in 10.0 mi SSE 12.7 mph - N/A   Overcast
11:15 PM 21.2 °F 8.9 °F 14.0 °F 74% 30.41 in 10.0 mi SSE 12.7 mph - N/A   Overcast
11:35 PM 21.2 °F 9.5 °F 14.0 °F 74% 30.41 in 10.0 mi SSE 11.5 mph 16.1 mph N/A   Mostly Cloudy
11:55 PM 21.2 °F 9.5 °F 14.0 °F 74% 30.39 in 10.0 mi SSE 11.5 mph - N/A   Mostly Cloudy